Location: Newark
(40.9833°N, 0.0333°W)
Time: 01:36:02
(UTC+00:00)

deb Explorer IX - Pass Details

Date: 29 October 2020
Orbit: 537 x 1105 km, 38.8° (Epoch: 02 December)

Event Time Altitude Azimuth Distance (km) Brightness Sun altitude
Rises 10:06:43 0° 279° (W) 3,772 ? 30.9°
Reaches altitude 10° 10:09:32 10° 272° (W) 2,875 ? 31.1°
Maximum altitude 10:15:58 37° 208° (SSW) 1,632 ? 31.7°
Drops below altitude 10° 10:22:33 10° 144° (SE) 2,944 ? 32.2°
Sets 10:25:29 0° 136° (SE) 3,873 ? 32.4°
